This demonstration page uses our WeatherBlox Daily Observations layout. Learn more.

Left ArrowRight Arrow

34.74481, -87.66753

Hourly Observations for September 24, 2022

Temp ( °F °C ) Dew Point ( °F °C ) Humidity (%) Winds ( mph kmh ) Pressure ( in mb ) Visibility ( mi km ) Precip ( " mm )
12:53 am 00:53 Clear 58 14.4 54 12.2 87 87 Calm 30.05 1018 10 16 0.00 0.00
1:53 am 01:53 Clear 58 14.4 54 12.2 87 87 Calm 30.05 1018 10 16 0.00 0.00
2:53 am 02:53 Clear 56 13.3 53 11.7 90 90 Calm 30.04 1017 10 16 0.00 0.00
3:53 am 03:53 Clear 58 14.4 54 12.2 87 87 Calm 30.04 1017 10 16 0.00 0.00
4:53 am 04:53 Clear 58 14.4 55 12.8 90 90 Calm 30.05 1018 10 16 0.00 0.00
5:53 am 05:53 Clear 59 15 54 12.2 83 83 SE 3 6 30.05 1018 10 16 0.00 0.00
6:53 am 06:53 Sunny 58 14.4 54 12.2 87 87 Calm 30.07 1018 10 16 0.00 0.00
7:53 am 07:53 Mostly Sunny 63 17.2 56 13.3 78 78 Calm 30.08 1019 10 16 0.00 0.00
8:53 am 08:53 Mostly Cloudy 71 21.7 55 12.8 57 57 S 8 13 30.08 1019 10 16 0.00 0.00
9:53 am 09:53 Sunny 76 24.4 55 12.8 48 48 SSW 9 15 30.08 1019 10 16 0.00 0.00
10:53 am 10:53 Sunny 80 26.7 56 13.3 44 44 SW 6 9 30.07 1018 10 16 0.00 0.00
11:53 am 11:53 Sunny 82 27.8 54 12.2 38 38 VRB 3 6 30.06 1018 10 16 0.00 0.00
12:53 pm 12:53 Sunny 85 29.4 54 12.2 35 35 undefined N/A 30.03 1017 10 16 0.00 0.00
1:53 pm 13:53 Sunny 88 31.1 55 12.8 33 33 W 5 7 30.00 1016 10 16 0.00 0.00
2:53 pm 14:53 Sunny 89 31.7 58 14.4 35 35 W 8 13 29.97 1015 10 16 0.00 0.00
3:53 pm 15:53 Sunny 87 30.6 59 15 39 39 W 7 11 29.95 1014 10 16 0.00 0.00
4:53 pm 16:53 Sunny 89 31.7 59 15 36 36 W 6 9 29.93 1014 10 16 0.00 0.00
5:53 pm 17:53 Sunny 86 30 61 16.1 43 43 WSW 7 11 29.93 1014 10 16 0.00 0.00
6:53 pm 18:53 Clear 83 28.3 62 16.7 49 49 WSW 3 6 29.92 1013 10 16 0.00 0.00
7:53 pm 19:53 Clear 78 25.6 62 16.7 58 58 SSW 6 9 29.94 1014 10 16 0.00 0.00
8:53 pm 20:53 Clear 76 24.4 62 16.7 62 62 SSE 6 9 29.94 1014 10 16 0.00 0.00
9:53 pm 21:53 Clear 76 24.4 61 16.1 60 60 S 6 9 29.93 1014 10 16 0.00 0.00
10:53 pm 22:53 Clear 76 24.4 62 16.7 62 62 SW 6 9 29.94 1014 10 16 0.00 0.00

Powered by AerisWeather